GONETS D1 5

导读

GONETS D1-5卫星,于1997年2月14日由独联体(CIS)发射升空,隶属于俄罗斯“Gonets”(信使)低轨道移动卫星通信系统。作为该系统的早期组网卫星,它承担全球信息交换与通信中继任务,为偏远地区提供移动通信支持,是俄罗斯构建自主低轨卫星通信网络的重要组成部分,推动了全球卫星通信服务的发展进程。

基本信息
目录编号:
24729
目录名称:
GONETS D1 5
国际标识:
1997-006E
轨道中心:
EARTH
卫星名称:
GONETS D1 5
卫星全名:
--
卫星状态:
在轨 (已飞行10715 天)
发射日期:
1997-02-14 UTC
国别 :
俄罗斯(独联体) (CIS)
星等 :
--
轨道信息
数据来源 国际轨道数据 AOE轨道数据
星历时间 2026-06-17T15:19:08+0800
8小时前
查看轨道信息
2026-06-17T02:00:00+0800
22小时前
查看轨道信息
半长轴 7788.775km 7788.765km
偏心率 0.0003236 0.0003127
轨道倾角 82.598° 82.599°
近地点辐角 238.976° 231.782°
升交点赤经 242.490° 242.843°
平近点角 185.456° 190.694°
近地点 1408.117km 1408.192km
远地点 1413.159km 1413.064km
周期 114.015分钟 114.015分钟
每日圈数 12.629875 12.6299
详细信息
使用方式:
暂无
2D轨道图
3D轨道图
轨道高度分析图
轨道倾角分析图
轨道综合分析图
查看轨道综合分析图